loading
DOY 175 | 2024-06-23T10:42:44Z

STARLINK-31920, 59907

Orbit data source: Space-Track

STARLINK-31920, 59907 is a payload satellite owned by SpaceX/Seattle (US) in LEO that was launched on Tue, 28 May 2024 UTC via a Falcon 9 launch vehicle from the Air Force Eastern Test Range (AFETR). Payloads include a variety of satellites, spacecraft, and rockets equipped with specific instruments for various scientific and technological missions. These include communications satellites like Starlink; space stations such as the ISS; scientific satellites like the Hubble; Earth observation satellites from companies like Planet Labs, Umbra, and HawkEye 360; GPS; miniature CubeSats for education and research; and military/defense satellites.

Loading next visibility...
Loading greatness...
STARLINK-31920 details
NORAD ID59907
COSPAR ID
2024-100Y
Orbit
LEO
Last TLE update8 hours ago
Origin
Flag of USSpaceX/Seattle (US)
ManufacturerSpaceX/Seattle
BusStarlink V2M
MotorUnknown
Mass750 kg wet, ~700 kg dry
Launch date (UTC)
2024-05-28 (4 weeks ago)
Launch vehicle
Falcon 9
Launch site
Air Force Eastern Test Range (AFETR)
Object type
Payload
Rocket body
Debris
Radar Cross SectionLarge (>1 m²)
Predictive object data (real-time)
Latitude-20.42755°
Longitude101.28558°
Altitude419.269 km
Speed7.661 km/s
Apparent Right ascension06h 26m 09s
Apparent Declination-38° 10' 01"
Sunlit
Object is in daylight
Predictive observer data (real-time)
Local Sidereal Time21:50:39
Azimuth104.415° ESE
Elevation-50.805°
Doppler factor1
Orbital elements
Apogee418.305 km
Perigee415.755 km
Semi-major axis6,795.167 km
Eccentricity0.0001876
Inclination43.0004°
RAAN85.0326°
Arg. of periapsis254.152°
True anomaly105.93407°
Mean anomaly105.9134°
Mean motion3.87474 °/min
BSTAR-0.000057366
Period92.91 mins
Definitive object data (Epoch: 2024-06-23T03:06:50.497Z)
Latitude0.00001°
Longitude126.53905°
Altitude415.188 km
Speed7.664 km/s
True Right ascension05h 40m 07s
True Declination0° 00' 00"
Sunlit
Object was in daylight at TLE epoch
TLE from 8 hours ago
0 STARLINK-31920
1 59907U 24100Y   24175.12975113 -.00003704  00000-0 -57366-4 0  9992
2 59907  43.0004  85.0326 0001876 254.1520 105.9134 15.50568338  5156
Epoch: 2024-06-23T03:06Z
No data available

STARLINK-31920 Visibility forecast

Observer location: 39.9160978°, -105.1181434, 0m alt.

STARLINK-31920 is not visible in the next 10 days
Span
Click to sort rows by Start time (UTC) header in descending order
Start Az.
Max El. time (UTC)
Max El. Az.
Max El.
End time (UTC)
End Az.